LZ0VRC-10 Weather Reports


Display with metric or nautical units.
time (UTC)temp
F
wind
direction
speed
MPH
gust
MPH
rain 1hr
in
rain 24hr
in
rain mn
in
humidity
%
barometer
mb
20260506122002 89 0.0 0.0 0.00 0.00 0.00 21 1013.9
20260506121957 89 0.0 0.0 0.00 0.00 0.00 21 1013.9
20260506120502 90 0.0 0.0 0.00 0.00 0.00 20 1014.2
20260506120457 90 0.0 0.0 0.00 0.00 0.00 20 1014.2
20260506115005 91 0.0 0.0 0.00 0.00 0.00 20 1014.3
20260506114957 91 0.0 0.0 0.00 0.00 0.00 20 1014.3
20260506113502 93 0.0 0.0 0.00 0.00 0.00 18 1014.5
20260506113457 93 0.0 0.0 0.00 0.00 0.00 18 1014.5
20260506112002 93 0.0 0.0 0.00 0.00 0.00 18 1014.6
20260506111957 93 0.0 0.0 0.00 0.00 0.00 18 1014.6
20260506110502 94 0.0 0.0 0.00 0.00 0.00 17 1014.8
20260506110457 94 0.0 0.0 0.00 0.00 0.00 17 1014.8
20260506105002 91 0.0 0.0 0.00 0.00 0.00 19 1014.9
20260506104957 91 0.0 0.0 0.00 0.00 0.00 19 1014.9
20260506103457 90 0.0 0.0 0.00 0.00 0.00 18 1015.1
20260506102002 92 0.0 0.0 0.00 0.00 0.00 17 1015.2
20260506101957 92 0.0 0.0 0.00 0.00 0.00 17 1015.2
20260506100502 87 0.0 0.0 0.00 0.00 0.00 18 1015.4
20260506100457 87 0.0 0.0 0.00 0.00 0.00 18 1015.4
20260506095002 87 0.0 0.0 0.00 0.00 0.00 18 1015.5
20260506094957 87 0.0 0.0 0.00 0.00 0.00 18 1015.5
20260506093502 85 0.0 0.0 0.00 0.00 0.00 20 1015.6
20260506093457 85 0.0 0.0 0.00 0.00 0.00 20 1015.6
20260506092002 86 0.0 0.0 0.00 0.00 0.00 19 1015.7
20260506091957 86 0.0 0.0 0.00 0.00 0.00 19 1015.7
20260506090502 87 0.0 0.0 0.00 0.00 0.00 18 1015.7
20260506090457 87 0.0 0.0 0.00 0.00 0.00 18 1015.7
20260506084957 89 0.0 0.0 0.00 0.00 0.00 17 1015.7
20260506083502 88 0.0 0.0 0.00 0.00 0.00 18 1015.7
20260506083457 88 0.0 0.0 0.00 0.00 0.00 18 1015.7
20260506081957 87 0.0 0.0 0.00 0.00 0.00 18 1015.7
20260506080457 85 0.0 0.0 0.00 0.00 0.00 22 1015.7
20260506073502 82 0.0 0.0 0.00 0.00 0.00 26 1015.7
20260506073458 82 0.0 0.0 0.00 0.00 0.00 26 1015.7
20260506072012 80 0.0 0.0 0.00 0.00 0.00 29 1015.7
20260506072002 80 0.0 0.0 0.00 0.00 0.00 29 1015.7
20260506071958 80 0.0 0.0 0.00 0.00 0.00 29 1015.7
20260506070502 76 0.0 0.0 0.00 0.00 0.00 32 1015.7
20260506070458 76 0.0 0.0 0.00 0.00 0.00 32 1015.7
20260506062013 70 0.0 0.0 0.00 0.00 0.00 40 1015.8
20260506062002 70 0.0 0.0 0.00 0.00 0.00 40 1015.8
20260506061958 70 0.0 0.0 0.00 0.00 0.00 40 1015.8
20260506060503 68 0.0 0.0 0.00 0.00 0.00 40 1015.8
20260506060458 68 0.0 0.0 0.00 0.00 0.00 40 1015.8
20260506050503 64 0.0 0.0 0.00 0.00 0.00 45 1015.5
20260506050458 64 0.0 0.0 0.00 0.00 0.00 45 1015.5
20260506044958 63 0.0 0.0 0.00 0.00 0.00 47 1015.4
20260506043503 60 0.0 0.0 0.00 0.00 0.00 52 1015.2
20260506043458 60 0.0 0.0 0.00 0.00 0.00 52 1015.2
20260506042003 59 0.0 0.0 0.00 0.00 0.00 54 1015.1
20260506041958 59 0.0 0.0 0.00 0.00 0.00 54 1015.1
20260506040503 58 0.0 0.0 0.00 0.00 0.00 53 1015.0
20260506040458 58 0.0 0.0 0.00 0.00 0.00 53 1015.0
20260506035003 57 0.0 0.0 0.00 0.00 0.00 56 1015.0
20260506034958 57 0.0 0.0 0.00 0.00 0.00 56 1015.0
20260506033503 54 0.0 0.0 0.00 0.00 0.00 65 1015.0
20260506033458 54 0.0 0.0 0.00 0.00 0.00 65 1015.0
20260506032013 55 0.0 0.0 0.00 0.00 0.00 63 1014.9
20260506032003 55 0.0 0.0 0.00 0.00 0.00 63 1014.9
20260506031958 55 0.0 0.0 0.00 0.00 0.00 63 1014.9
20260506030503 58 0.0 0.0 0.00 0.00 0.00 54 1014.4
20260506030458 58 0.0 0.0 0.00 0.00 0.00 54 1014.4
20260506025003 58 0.0 0.0 0.00 0.00 0.00 54 1014.2
20260506024958 58 0.0 0.0 0.00 0.00 0.00 54 1014.2
20260506023503 57 0.0 0.0 0.00 0.00 0.00 56 1014.1
20260506023458 57 0.0 0.0 0.00 0.00 0.00 56 1014.1
20260506022003 57 0.0 0.0 0.00 0.00 0.00 56 1014.1
20260506021958 57 0.0 0.0 0.00 0.00 0.00 56 1014.1
20260506020503 57 0.0 0.0 0.00 0.00 0.00 55 1014.1
20260506020458 57 0.0 0.0 0.00 0.00 0.00 55 1014.1
20260506015003 57 0.0 0.0 0.00 0.00 0.00 55 1014.1
20260506014958 57 0.0 0.0 0.00 0.00 0.00 55 1014.1
20260506013458 57 0.0 0.0 0.00 0.00 0.00 57 1014.0
20260506011958 56 0.0 0.0 0.00 0.00 0.00 59 1014.0
20260506010458 57 0.0 0.0 0.00 0.00 0.00 57 1014.0
20260506005003 57 0.0 0.0 0.00 0.00 0.00 56 1013.9
20260506004958 57 0.0 0.0 0.00 0.00 0.00 56 1013.9
20260506003503 58 0.0 0.0 0.00 0.00 0.00 54 1013.8
20260506003458 58 0.0 0.0 0.00 0.00 0.00 54 1013.8
20260506002003 58 0.0 0.0 0.00 0.00 0.00 54 1013.8
20260506001958 58 0.0 0.0 0.00 0.00 0.00 54 1013.8
20260506000458 57 0.0 0.0 0.00 0.00 0.00 56 1013.9
20260505235003 57 0.0 0.0 0.00 0.00 0.00 55 1013.9
20260505234958 57 0.0 0.0 0.00 0.00 0.00 55 1013.9
20260505233503 58 0.0 0.0 0.00 0.00 0.00 54 1013.9
20260505233458 58 0.0 0.0 0.00 0.00 0.00 54 1013.9
20260505232003 59 0.0 0.0 0.00 0.00 0.00 51 1014.0
20260505231958 59 0.0 0.0 0.00 0.00 0.00 51 1014.0
20260505230503 59 0.0 0.0 0.00 0.00 0.00 52 1014.1
20260505230458 59 0.0 0.0 0.00 0.00 0.00 52 1014.1
20260505225003 60 0.0 0.0 0.00 0.00 0.00 50 1014.1
20260505224958 60 0.0 0.0 0.00 0.00 0.00 50 1014.1
20260505223503 59 0.0 0.0 0.00 0.00 0.00 51 1014.2
20260505223459 59 0.0 0.0 0.00 0.00 0.00 51 1014.2
20260505222003 61 0.0 0.0 0.00 0.00 0.00 46 1014.4
20260505221958 61 0.0 0.0 0.00 0.00 0.00 46 1014.4
20260505220503 61 0.0 0.0 0.00 0.00 0.00 46 1014.4
20260505220459 61 0.0 0.0 0.00 0.00 0.00 46 1014.4
20260505215003 61 0.0 0.0 0.00 0.00 0.00 46 1014.4
20260505214959 61 0.0 0.0 0.00 0.00 0.00 46 1014.4
20260505213503 61 0.0 0.0 0.00 0.00 0.00 46 1014.4
20260505213459 61 0.0 0.0 0.00 0.00 0.00 46 1014.4
20260505212004 63 0.0 0.0 0.00 0.00 0.00 42 1014.5
20260505211959 63 0.0 0.0 0.00 0.00 0.00 42 1014.5
20260505210503 64 0.0 0.0 0.00 0.00 0.00 41 1014.5
20260505210459 64 0.0 0.0 0.00 0.00 0.00 41 1014.5
20260505204959 64 0.0 0.0 0.00 0.00 0.00 40 1014.5
20260505203459 64 0.0 0.0 0.00 0.00 0.00 39 1014.6
20260505202004 65 0.0 0.0 0.00 0.00 0.00 40 1014.6
20260505201959 65 0.0 0.0 0.00 0.00 0.00 40 1014.6
20260505200504 65 0.0 0.0 0.00 0.00 0.00 39 1014.7
20260505200459 65 0.0 0.0 0.00 0.00 0.00 39 1014.7
20260505195004 65 0.0 0.0 0.00 0.00 0.00 39 1014.6
20260505194959 65 0.0 0.0 0.00 0.00 0.00 39 1014.6
20260505193504 66 0.0 0.0 0.00 0.00 0.00 39 1014.6
20260505193459 66 0.0 0.0 0.00 0.00 0.00 39 1014.6
20260505192004 66 0.0 0.0 0.00 0.00 0.00 38 1014.4
20260505191959 66 0.0 0.0 0.00 0.00 0.00 38 1014.4
20260505190504 66 0.0 0.0 0.00 0.00 0.00 37 1014.4
20260505190459 66 0.0 0.0 0.00 0.00 0.00 37 1014.4
20260505185004 67 0.0 0.0 0.00 0.00 0.00 36 1014.3
20260505184959 67 0.0 0.0 0.00 0.00 0.00 36 1014.3
20260505183507 68 0.0 0.0 0.00 0.00 0.00 36 1014.3
20260505183459 68 0.0 0.0 0.00 0.00 0.00 36 1014.3
20260505181959 68 0.0 0.0 0.00 0.00 0.00 35 1014.2
20260505180459 69 0.0 0.0 0.00 0.00 0.00 34 1014.1
20260505175004 69 0.0 0.0 0.00 0.00 0.00 35 1014.1
20260505174959 69 0.0 0.0 0.00 0.00 0.00 35 1014.1
20260505173504 70 0.0 0.0 0.00 0.00 0.00 33 1014.1
20260505173459 70 0.0 0.0 0.00 0.00 0.00 33 1014.1
20260505171959 72 0.0 0.0 0.00 0.00 0.00 32 1014.1
20260505170504 76 0.0 0.0 0.00 0.00 0.00 28 1014.0
20260505170459 76 0.0 0.0 0.00 0.00 0.00 28 1014.0
20260505164959 80 0.0 0.0 0.00 0.00 0.00 24 1014.0
20260505163504 82 0.0 0.0 0.00 0.00 0.00 23 1014.0
20260505163459 82 0.0 0.0 0.00 0.00 0.00 23 1014.0
20260505162007 82 0.0 0.0 0.00 0.00 0.00 22 1014.1
20260505161959 82 0.0 0.0 0.00 0.00 0.00 22 1014.1
20260505160504 83 0.0 0.0 0.00 0.00 0.00 21 1014.1
20260505160459 83 0.0 0.0 0.00 0.00 0.00 21 1014.1
20260505152004 83 0.0 0.0 0.00 0.00 0.00 21 1014.5
20260505151959 83 0.0 0.0 0.00 0.00 0.00 21 1014.5
20260505150504 83 0.0 0.0 0.00 0.00 0.00 21 1014.5
20260505150459 83 0.0 0.0 0.00 0.00 0.00 21 1014.5
20260505140504 88 0.0 0.0 0.00 0.00 0.00 17 1014.9
20260505140459 88 0.0 0.0 0.00 0.00 0.00 17 1014.9
20260505125004 91 0.0 0.0 0.00 0.00 0.00 15 1015.6
20260505124959 91 0.0 0.0 0.00 0.00 0.00 15 1015.6
20260505123504 90 0.0 0.0 0.00 0.00 0.00 16 1015.7
20260505123500 90 0.0 0.0 0.00 0.00 0.00 16 1015.7